When you browse on this site, cookies collect data to enhance your experience and personalize the content and advertising you see.
Visit our Privacy Policy to learn more. By continuing to use the site, you agree to this use of cookies and data.
  • In Switzerland
  • List of Countries
  • For 7 days
  • Water Temperature
  • Satellite Maps
  • Weather Map
  • Weather Widgets
  • user-avatar
    Login

    Hourly Weather Plakhtyanka

    Today, 16 July, Tuesday

    Time Temperature Precipitation Wind Pressure Humidity
    00:00 +14°C° 0 mm 1 mps 742 mmHg 91%
    01:00 +13°C° 0 mm 1 mps 742 mmHg 91%
    02:00 +13°C° 0 mm 1 mps 742 mmHg 91%
    03:00 +13°C° 0 mm 1 mps 742 mmHg 92%
    04:00 +13°C° 0 mm 2 mps 742 mmHg 93%
    05:00 +13°C° 0 mm 2 mps 742 mmHg 93%
    06:00 +15°C° 0 mm 2 mps 742 mmHg 87%
    07:00 +17°C° 0 mm 2 mps 742 mmHg 81%
    08:00 +18°C° 0 mm 2 mps 743 mmHg 75%
    09:00 +20°C° 0 mm 2 mps 742 mmHg 68%
    10:00 +21°C° 0 mm 2 mps 742 mmHg 62%
    11:00 +23°C° 0 mm 2 mps 742 mmHg 55%
    12:00 +24°C° 0.2 mm 3 mps 742 mmHg 54%
    13:00 +24°C° 0.2 mm 3 mps 742 mmHg 52%
    14:00 +25°C° 0.2 mm 3 mps 742 mmHg 51%
    15:00 +25°C° 0 mm 3 mps 741 mmHg 52%
    16:00 +25°C° 0 mm 3 mps 741 mmHg 52%
    17:00 +25°C° 0 mm 3 mps 741 mmHg 53%
    18:00 +22°C° 0 mm 3 mps 741 mmHg 61%
    19:00 +20°C° 0 mm 3 mps 741 mmHg 69%
    20:00 +18°C° 0 mm 3 mps 741 mmHg 77%
    21:00 +17°C° 0 mm 3 mps 741 mmHg 81%
    22:00 +16°C° 0 mm 3 mps 741 mmHg 84%
    23:00 +15°C° 0 mm 2 mps 741 mmHg 87%

    Tomorrow, 17 July, Wednesday

    Time Temperature Precipitation Wind Pressure Humidity
    00:00 +14°C° 0 mm 3 mps 741 mmHg 89%
    01:00 +14°C° 0 mm 3 mps 741 mmHg 91%
    02:00 +13°C° 0 mm 3 mps 741 mmHg 93%
    03:00 +13°C° 0 mm 3 mps 741 mmHg 93%
    04:00 +13°C° 0 mm 3 mps 741 mmHg 93%
    05:00 +13°C° 0 mm 3 mps 740 mmHg 94%
    06:00 +14°C° 0 mm 4 mps 741 mmHg 86%
    07:00 +15°C° 0 mm 4 mps 741 mmHg 78%
    08:00 +17°C° 0 mm 4 mps 741 mmHg 70%
    09:00 +18°C° 0.1 mm 4 mps 741 mmHg 69%
    10:00 +19°C° 0.1 mm 5 mps 741 mmHg 67%
    11:00 +20°C° 0.1 mm 5 mps 741 mmHg 65%
    12:00 +20°C° 0.5 mm 5 mps 741 mmHg 66%
    13:00 +20°C° 0.5 mm 5 mps 740 mmHg 67%
    14:00 +20°C° 0.5 mm 5 mps 740 mmHg 68%
    15:00 +20°C° 0.4 mm 5 mps 740 mmHg 68%
    16:00 +20°C° 0.4 mm 5 mps 740 mmHg 68%
    17:00 +20°C° 0.4 mm 5 mps 740 mmHg 68%
    18:00 +18°C° 0.1 mm 4 mps 740 mmHg 74%
    19:00 +17°C° 0.1 mm 3 mps 740 mmHg 79%
    20:00 +14°C° 0.1 mm 3 mps 740 mmHg 85%
    21:00 +14°C° 0 mm 3 mps 740 mmHg 87%
    22:00 +13°C° 0 mm 3 mps 740 mmHg 89%
    23:00 +12°C° 0 mm 3 mps 740 mmHg 92%

    Day after tomorrow, 18 July, Thursday

    Time Temperature Precipitation Wind Pressure Humidity
    00:00 +12°C° 0 mm 3 mps 740 mmHg 93%
    01:00 +12°C° 0 mm 3 mps 740 mmHg 94%
    02:00 +12°C° 0 mm 3 mps 740 mmHg 94%
    03:00 +11°C° 0 mm 4 mps 740 mmHg 95%
    04:00 +11°C° 0 mm 4 mps 740 mmHg 96%
    05:00 +11°C° 0 mm 4 mps 740 mmHg 96%
    06:00 +13°C° 0 mm 4 mps 740 mmHg 91%
    07:00 +14°C° 0 mm 4 mps 740 mmHg 86%
    08:00 +15°C° 0 mm 5 mps 741 mmHg 81%
    09:00 +17°C° 0 mm 5 mps 741 mmHg 74%
    10:00 +19°C° 0 mm 5 mps 741 mmHg 67%
    11:00 +20°C° 0 mm 5 mps 741 mmHg 60%
    12:00 +21°C° 0.1 mm 6 mps 741 mmHg 59%
    13:00 +21°C° 0.1 mm 6 mps 741 mmHg 58%
    14:00 +22°C° 0.1 mm 6 mps 741 mmHg 58%
    15:00 +22°C° 0.1 mm 6 mps 741 mmHg 59%
    16:00 +21°C° 0.1 mm 5 mps 742 mmHg 61%
    17:00 +21°C° 0.1 mm 5 mps 742 mmHg 62%
    18:00 +20°C° 0 mm 4 mps 742 mmHg 69%
    19:00 +19°C° 0 mm 4 mps 742 mmHg 75%
    20:00 +17°C° 0 mm 3 mps 742 mmHg 82%
    21:00 +17°C° 0 mm 3 mps 742 mmHg 84%
    22:00 +15°C° 0 mm 4 mps 743 mmHg 86%
    23:00 +14°C° 0 mm 4 mps 743 mmHg 88%

    19 July, Friday

    Time Temperature Precipitation Wind Pressure Humidity
    00:00 +14°C° 0 mm 4 mps 743 mmHg 89%
    01:00 +14°C° 0 mm 4 mps 743 mmHg 90%
    02:00 +14°C° 0 mm 4 mps 743 mmHg 91%
    03:00 +14°C° 0 mm 4 mps 743 mmHg 91%
    04:00 +14°C° 0 mm 4 mps 743 mmHg 92%
    05:00 +14°C° 0 mm 4 mps 744 mmHg 92%
    06:00 +15°C° 0 mm 4 mps 744 mmHg 86%
    07:00 +18°C° 0 mm 4 mps 744 mmHg 80%
    08:00 +19°C° 0 mm 4 mps 744 mmHg 74%
    09:00 +20°C° 0 mm 5 mps 745 mmHg 69%
    10:00 +22°C° 0 mm 5 mps 745 mmHg 64%
    11:00 +23°C° 0 mm 5 mps 745 mmHg 58%
    12:00 +25°C° 0 mm 5 mps 745 mmHg 56%
    13:00 +25°C° 0 mm 5 mps 745 mmHg 53%
    14:00 +26°C° 0 mm 5 mps 745 mmHg 51%
    15:00 +26°C° 0 mm 4 mps 745 mmHg 52%
    16:00 +26°C° 0 mm 4 mps 745 mmHg 54%
    17:00 +26°C° 0 mm 4 mps 745 mmHg 55%
    18:00 +24°C° 0 mm 3 mps 746 mmHg 62%
    19:00 +21°C° 0 mm 3 mps 746 mmHg 70%
    20:00 +19°C° 0 mm 2 mps 746 mmHg 77%
    21:00 +19°C° 0 mm 2 mps 746 mmHg 79%
    22:00 +18°C° 0 mm 2 mps 747 mmHg 82%
    23:00 +17°C° 0 mm 2 mps 747 mmHg 84%

    20 July, Saturday

    Time Temperature Precipitation Wind Pressure Humidity
    00:00 +18°C° 0 mm 1 mps 747 mmHg 85%
    01:00 +16°C° 0 mm 1 mps 747 mmHg 87%
    02:00 +16°C° 0 mm 1 mps 747 mmHg 89%
    03:00 +16°C° 0 mm 1 mps 747 mmHg 88%
    04:00 +16°C° 0 mm 1 mps 747 mmHg 88%
    05:00 +16°C° 0 mm 1 mps 747 mmHg 88%
    06:00 +19°C° 0 mm 1 mps 748 mmHg 81%
    07:00 +21°C° 0 mm 1 mps 748 mmHg 74%
    08:00 +23°C° 0 mm 1 mps 748 mmHg 67%
    09:00 +24°C° 0 mm 1 mps 748 mmHg 63%
    10:00 +25°C° 0 mm 2 mps 748 mmHg 59%
    11:00 +26°C° 0 mm 2 mps 749 mmHg 54%
    12:00 +26°C° 0 mm 2 mps 748 mmHg 55%
    13:00 +26°C° 0 mm 2 mps 748 mmHg 55%
    14:00 +26°C° 0 mm 2 mps 748 mmHg 56%
    15:00 +26°C° 0.2 mm 2 mps 748 mmHg 57%
    16:00 +26°C° 0.2 mm 2 mps 748 mmHg 59%
    17:00 +26°C° 0.2 mm 2 mps 748 mmHg 61%
    18:00 +25°C° 0.1 mm 2 mps 748 mmHg 67%
    19:00 +23°C° 0.1 mm 2 mps 748 mmHg 73%
    20:00 +21°C° 0.1 mm 2 mps 748 mmHg 79%
    21:00 +20°C° 0.1 mm 2 mps 748 mmHg 83%
    22:00 +19°C° 0.1 mm 2 mps 749 mmHg 87%
    23:00 +18°C° 0.1 mm 2 mps 749 mmHg 91%

    21 July, Sunday

    Time Temperature Precipitation Wind Pressure Humidity
    00:00 +18°C° 0 mm 1 mps 749 mmHg 92%
    01:00 +18°C° 0 mm 1 mps 749 mmHg 94%
    02:00 +16°C° 0 mm 1 mps 748 mmHg 95%
    03:00 +18°C° 0 mm 1 mps 749 mmHg 96%
    04:00 +18°C° 0 mm 1 mps 749 mmHg 96%
    05:00 +18°C° 0 mm 1 mps 749 mmHg 96%
    06:00 +19°C° 0 mm 1 mps 749 mmHg 90%
    07:00 +21°C° 0 mm 1 mps 749 mmHg 85%
    08:00 +23°C° 0 mm 1 mps 749 mmHg 79%
    09:00 +25°C° 0 mm 1 mps 750 mmHg 72%
    10:00 +26°C° 0 mm 1 mps 750 mmHg 66%
    11:00 +28°C° 0 mm 1 mps 750 mmHg 59%
    12:00 +28°C° 0.7 mm 1 mps 750 mmHg 58%
    13:00 +28°C° 0.7 mm 2 mps 750 mmHg 58%
    14:00 +29°C° 0.7 mm 2 mps 749 mmHg 57%
    15:00 +28°C° 1.7 mm 2 mps 749 mmHg 62%
    16:00 +27°C° 1.7 mm 2 mps 749 mmHg 67%
    17:00 +26°C° 1.7 mm 2 mps 749 mmHg 71%
    18:00 +25°C° 0.2 mm 2 mps 749 mmHg 76%
    19:00 +24°C° 0.2 mm 2 mps 750 mmHg 80%
    20:00 +21°C° 0.2 mm 2 mps 750 mmHg 85%
    21:00 +21°C° 0 mm 2 mps 750 mmHg 86%
    22:00 +20°C° 0 mm 2 mps 750 mmHg 88%
    23:00 +20°C° 0 mm 2 mps 750 mmHg 89%
    Show more